Time,TemperatureF,DewpointF,PressureIn,WindDirection,WindDirectionDegrees,WindSpeedMPH,WindSpeedGustMPH,Humidity,HourlyPrecipIn,Conditions,Clouds,dailyrainin,SoftwareType,DateUTC
2013-01-25 00:00:00,16.0,3.5,-100.00,NNE,27,2.7,4.5,57,-99.99,,,0.00,LWC V2.10 B1813,2013-01-25 05:00:00,
2013-01-25 00:01:00,16.0,3.5,-100.00,NNE,27,3.6,4.5,57,-99.99,,,0.00,LWC V2.10 B1813,2013-01-25 05:01:00,
2013-01-25 00:06:00,16.2,3.3,-100.00,NNE,27,5.4,5.4,56,-99.99,,,0.00,LWC V2.10 B1813,2013-01-25 05:06:00,
2013-01-25 00:11:00,16.2,2.9,-100.00,NE,34,4.9,4.9,55,-99.99,,,0.00,LWC V2.10 B1813,2013-01-25 05:11:00,
2013-01-25 00:16:00,15.8,2.9,-100.00,NE,34,4.9,5.4,56,-99.99,,,0.00,LWC V2.10 B1813,2013-01-25 05:16:00,
2013-01-25 00:21:00,15.4,2.6,-100.00,NNE,25,5.4,5.4,56,-99.99,,,0.00,LWC V2.10 B1813,2013-01-25 05:21:00,
2013-01-25 00:26:00,15.6,2.4,-100.00,NE,36,4.0,5.4,55,-99.99,,,0.00,LWC V2.10 B1813,2013-01-25 05:26:00,
2013-01-25 00:31:00,15.8,2.1,-100.00,NNE,33,4.0,5.8,54,-99.99,,,0.00,LWC V2.10 B1813,2013-01-25 05:31:00,
2013-01-25 00:32:00,15.8,2.1,-100.00,NNE,30,4.0,6.3,54,-99.99,,,0.00,LWC V2.10 B1813,2013-01-25 05:32:00,
2013-01-25 00:37:00,15.8,1.7,-100.00,NNE,32,4.5,5.8,53,-99.99,,,0.00,LWC V2.10 B1813,2013-01-25 05:37:00,
2013-01-25 00:42:00,15.6,1.2,-100.00,NNE,32,3.6,5.4,52,-99.99,,,0.00,LWC V2.10 B1813,2013-01-25 05:42:00,
2013-01-25 00:47:00,15.4,1.0,-100.00,NE,37,4.0,4.0,52,-99.99,,,0.00,LWC V2.10 B1813,2013-01-25 05:47:00,
2013-01-25 00:52:00,15.4,0.6,-100.00,NE,39,4.0,4.0,51,-99.99,,,0.00,LWC V2.10 B1813,2013-01-25 05:52:00,
2013-01-25 00:57:00,15.4,0.6,-100.00,NE,42,3.1,4.9,51,-99.99,,,0.00,LWC V2.10 B1813,2013-01-25 05:57:00,
2013-01-25 01:02:00,15.6,0.3,-100.00,NE,37,4.0,4.9,50,-99.99,,,0.00,LWC V2.10 B1813,2013-01-25 06:02:00,
2013-01-25 01:07:00,15.4,0.2,-100.00,NE,55,4.5,5.8,50,-99.99,,,0.00,LWC V2.10 B1813,2013-01-25 06:07:00,
2013-01-25 01:12:00,15.4,0.2,-100.00,NE,38,4.0,4.0,50,-99.99,,,0.00,LWC V2.10 B1813,2013-01-25 06:12:00,
2013-01-25 01:17:00,15.4,0.2,-100.00,NE,47,3.6,4.0,50,-99.99,,,0.00,LWC V2.10 B1813,2013-01-25 06:17:00,
2013-01-25 01:22:00,15.4,0.2,-100.00,NE,51,4.0,5.4,50,-99.99,,,0.00,LWC V2.10 B1813,2013-01-25 06:22:00,
2013-01-25 01:27:00,15.3,0.4,-100.00,NE,39,4.0,5.8,51,-99.99,,,0.00,LWC V2.10 B1813,2013-01-25 06:27:00,
2013-01-25 01:32:00,15.1,0.7,-100.00,NNE,24,4.9,4.9,52,-99.99,,,0.00,LWC V2.10 B1813,2013-01-25 06:32:00,
2013-01-25 01:37:00,15.1,1.1,-100.00,NE,40,5.4,6.3,53,-99.99,,,0.00,LWC V2.10 B1813,2013-01-25 06:37:00,
2013-01-25 01:42:00,15.3,1.2,-100.00,NE,36,4.5,5.8,53,-99.99,,,0.00,LWC V2.10 B1813,2013-01-25 06:42:00,
2013-01-25 01:47:00,15.1,1.1,-100.00,NE,35,4.9,5.4,53,-99.99,,,0.00,LWC V2.10 B1813,2013-01-25 06:47:00,
2013-01-25 01:50:00,15.1,1.5,-100.00,NE,37,4.0,5.8,54,-99.99,,,0.00,LWC V2.10 B1813,2013-01-25 06:50:00,
2013-01-25 01:55:00,15.1,0.7,-100.00,NNE,25,4.0,5.8,52,-99.99,,,0.00,LWC V2.10 B1813,2013-01-25 06:55:00,
2013-01-25 02:00:00,15.3,1.2,-100.00,NE,34,4.0,4.9,53,-99.99,,,0.00,LWC V2.10 B1813,2013-01-25 07:00:00,
2013-01-25 02:05:00,15.1,1.5,-100.00,NE,38,5.4,5.4,54,-99.99,,,0.00,LWC V2.10 B1813,2013-01-25 07:05:00,
2013-01-25 02:10:00,15.3,1.2,-100.00,NNE,22,4.9,5.4,53,-99.99,,,0.00,LWC V2.10 B1813,2013-01-25 07:10:00,
2013-01-25 02:15:00,15.3,1.2,-100.00,NE,37,4.9,5.4,53,-99.99,,,0.00,LWC V2.10 B1813,2013-01-25 07:15:00,
2013-01-25 02:20:00,15.3,1.2,-100.00,NNE,23,4.0,5.4,53,-99.99,,,0.00,LWC V2.10 B1813,2013-01-25 07:20:00,
2013-01-25 02:25:00,15.3,1.6,-100.00,NNE,26,5.4,5.8,54,-99.99,,,0.00,LWC V2.10 B1813,2013-01-25 07:25:00,
2013-01-25 02:30:00,15.3,1.2,-100.00,NNE,24,4.0,5.8,53,-99.99,,,0.00,LWC V2.10 B1813,2013-01-25 07:30:00,
2013-01-25 02:35:00,15.4,1.4,-100.00,NNE,20,5.4,5.8,53,-99.99,,,0.00,LWC V2.10 B1813,2013-01-25 07:35:00,
2013-01-25 02:40:00,15.4,0.6,-100.00,NNE,16,3.6,5.8,51,-99.99,,,0.00,LWC V2.10 B1813,2013-01-25 07:40:00,
2013-01-25 02:45:00,15.8,0.5,-100.00,NE,36,4.9,7.2,50,-99.99,,,0.00,LWC V2.10 B1813,2013-01-25 07:45:00,
2013-01-25 02:50:00,15.8,0.5,-100.00,East,81,3.6,4.5,50,-99.99,,,0.00,LWC V2.10 B1813,2013-01-25 07:50:00,
2013-01-25 02:55:00,16.0,-0.7,-100.00,NE,45,2.7,4.0,47,-99.99,,,0.00,LWC V2.10 B1813,2013-01-25 07:55:00,
2013-01-25 03:00:00,16.0,-0.7,-100.00,NE,39,3.1,4.0,47,-99.99,,,0.00,LWC V2.10 B1813,2013-01-25 08:00:00,
2013-01-25 03:05:00,16.0,-0.7,-100.00,NE,47,5.8,5.8,47,-99.99,,,0.00,LWC V2.10 B1813,2013-01-25 08:05:00,
2013-01-25 03:10:00,16.2,-0.5,-100.00,NNE,20,4.0,6.3,47,-99.99,,,0.00,LWC V2.10 B1813,2013-01-25 08:10:00,
2013-01-25 03:15:00,16.2,-0.5,-100.00,NNE,28,4.0,4.9,47,-99.99,,,0.00,LWC V2.10 B1813,2013-01-25 08:15:00,
2013-01-25 03:20:00,16.2,-0.5,-100.00,NE,40,3.1,3.6,47,-99.99,,,0.00,LWC V2.10 B1813,2013-01-25 08:20:00,
2013-01-25 03:25:00,16.2,0.0,-100.00,NE,35,4.9,5.4,48,-99.99,,,0.00,LWC V2.10 B1813,2013-01-25 08:25:00,
2013-01-25 03:30:00,16.2,-0.5,-100.00,NNE,13,5.8,5.8,47,-99.99,,,0.00,LWC V2.10 B1813,2013-01-25 08:30:00,
2013-01-25 03:35:00,16.3,-0.3,-100.00,ENE,57,5.4,5.4,47,-99.99,,,0.00,LWC V2.10 B1813,2013-01-25 08:35:00,
2013-01-25 03:40:00,16.3,-0.3,-100.00,NNE,15,4.9,4.9,47,-99.99,,,0.00,LWC V2.10 B1813,2013-01-25 08:40:00,
2013-01-25 03:45:00,16.5,-0.2,-100.00,NE,35,3.1,3.6,47,-99.99,,,0.00,LWC V2.10 B1813,2013-01-25 08:45:00,
2013-01-25 03:50:00,16.5,-0.2,-100.00,NE,34,5.4,5.4,47,-99.99,,,0.00,LWC V2.10 B1813,2013-01-25 08:50:00,
2013-01-25 03:55:00,16.5,-0.2,-100.00,NNE,24,4.9,5.4,47,-99.99,,,0.00,LWC V2.10 B1813,2013-01-25 08:55:00,
2013-01-25 04:00:00,16.5,-0.2,-100.00,NNE,33,3.1,4.0,47,-99.99,,,0.00,LWC V2.10 B1813,2013-01-25 09:00:00,
2013-01-25 04:05:00,16.5,-0.6,-100.00,NNE,33,5.4,5.4,46,-99.99,,,0.00,LWC V2.10 B1813,2013-01-25 09:05:00,
2013-01-25 04:10:00,16.5,-0.6,-100.00,North,10,5.4,5.4,46,-99.99,,,0.00,LWC V2.10 B1813,2013-01-25 09:10:00,
2013-01-25 04:15:00,16.5,-0.6,-100.00,NE,34,5.4,6.3,46,-99.99,,,0.00,LWC V2.10 B1813,2013-01-25 09:15:00,
2013-01-25 04:20:00,16.5,-0.2,-100.00,NNE,22,4.9,5.8,47,-99.99,,,0.00,LWC V2.10 B1813,2013-01-25 09:20:00,
2013-01-25 04:25:00,16.5,-0.2,-100.00,NNE,30,5.8,5.8,47,-99.99,,,0.00,LWC V2.10 B1813,2013-01-25 09:25:00,
2013-01-25 04:30:00,16.5,-0.6,-100.00,NNE,22,4.0,6.3,46,-99.99,,,0.00,LWC V2.10 B1813,2013-01-25 09:30:00,
2013-01-25 04:35:00,16.5,-0.2,-100.00,NE,50,5.4,6.3,47,-99.99,,,0.00,LWC V2.10 B1813,2013-01-25 09:35:00,
2013-01-25 04:40:00,16.5,-0.2,-100.00,NNE,27,5.4,7.6,47,-99.99,,,0.00,LWC V2.10 B1813,2013-01-25 09:40:00,
2013-01-25 04:45:00,16.7,0.0,-100.00,NE,39,5.8,8.1,47,-99.99,,,0.00,LWC V2.10 B1813,2013-01-25 09:45:00,
2013-01-25 04:50:00,16.7,0.0,-100.00,NE,41,5.4,6.3,47,-99.99,,,0.00,LWC V2.10 B1813,2013-01-25 09:50:00,
2013-01-25 04:55:00,16.7,0.0,-100.00,NNE,16,6.3,7.6,47,-99.99,,,0.00,LWC V2.10 B1813,2013-01-25 09:55:00,
2013-01-25 05:00:00,16.7,0.0,-100.00,NNE,31,5.4,8.1,47,-99.99,,,0.00,LWC V2.10 B1813,2013-01-25 10:00:00,
2013-01-25 05:05:00,16.7,0.0,-100.00,East,87,7.2,7.6,47,-99.99,,,0.00,LWC V2.10 B1813,2013-01-25 10:05:00,
2013-01-25 05:10:00,16.7,0.0,-100.00,NNE,33,5.4,6.7,47,-99.99,,,0.00,LWC V2.10 B1813,2013-01-25 10:10:00,
2013-01-25 05:15:00,16.7,0.0,-100.00,NE,38,6.3,7.6,47,-99.99,,,0.00,LWC V2.10 B1813,2013-01-25 10:15:00,
2013-01-25 05:20:00,16.9,0.2,-100.00,NNE,26,6.3,8.7,47,-99.99,,,0.00,LWC V2.10 B1813,2013-01-25 10:20:00,
2013-01-25 05:25:00,16.7,0.0,-100.00,NE,51,5.8,6.3,47,-99.99,,,0.00,LWC V2.10 B1813,2013-01-25 10:25:00,
2013-01-25 05:30:00,16.7,-0.4,-100.00,NE,43,5.4,8.3,46,-99.99,,,0.00,LWC V2.10 B1813,2013-01-25 10:30:00,
2013-01-25 05:35:00,16.9,0.2,-100.00,NE,38,5.4,6.7,47,-99.99,,,0.00,LWC V2.10 B1813,2013-01-25 10:35:00,
2013-01-25 05:40:00,16.7,-0.4,-100.00,NE,35,5.4,8.3,46,-99.99,,,0.00,LWC V2.10 B1813,2013-01-25 10:40:00,
2013-01-25 05:45:00,16.7,-0.4,-100.00,NNE,33,6.3,9.6,46,-99.99,,,0.00,LWC V2.10 B1813,2013-01-25 10:45:00,
2013-01-25 05:50:00,16.9,0.2,-100.00,NE,36,8.7,8.7,47,-99.99,,,0.00,LWC V2.10 B1813,2013-01-25 10:50:00,
2013-01-25 05:55:00,16.7,0.0,-100.00,NNE,33,8.3,8.3,47,-99.99,,,0.00,LWC V2.10 B1813,2013-01-25 10:55:00,
2013-01-25 06:00:00,16.9,0.2,-100.00,NE,51,10.1,10.1,47,-99.99,,,0.00,LWC V2.10 B1813,2013-01-25 11:00:00,
2013-01-25 06:05:00,16.9,-0.3,-100.00,NE,34,7.6,11.0,46,-99.99,,,0.00,LWC V2.10 B1813,2013-01-25 11:05:00,
2013-01-25 06:10:00,16.9,-0.3,-100.00,NE,38,6.3,8.3,46,-99.99,,,0.00,LWC V2.10 B1813,2013-01-25 11:10:00,
2013-01-25 06:15:00,16.9,-0.3,-100.00,NNE,32,5.8,8.1,46,-99.99,,,0.00,LWC V2.10 B1813,2013-01-25 11:15:00,
2013-01-25 06:20:00,16.9,-0.3,-100.00,NNE,19,4.0,7.6,46,-99.99,,,0.00,LWC V2.10 B1813,2013-01-25 11:20:00,
2013-01-25 06:25:00,17.1,0.3,-100.00,ENE,68,4.0,4.0,47,-99.99,,,0.00,LWC V2.10 B1813,2013-01-25 11:25:00,
2013-01-25 06:30:00,17.1,-0.1,-100.00,NE,37,3.6,4.0,46,-99.99,,,0.00,LWC V2.10 B1813,2013-01-25 11:30:00,
2013-01-25 06:35:00,17.1,-0.1,-100.00,SSE,151,4.0,4.0,46,-99.99,,,0.00,LWC V2.10 B1813,2013-01-25 11:35:00,
2013-01-25 06:40:00,17.2,0.5,-100.00,East,79,6.3,6.3,47,-99.99,,,0.00,LWC V2.10 B1813,2013-01-25 11:40:00,
2013-01-25 06:45:00,17.4,0.2,-100.00,NE,56,0.0,2.7,46,-99.99,,,0.00,LWC V2.10 B1813,2013-01-25 11:45:00,
2013-01-25 06:50:00,17.4,0.2,-100.00,East,87,4.0,4.9,46,-99.99,,,0.00,LWC V2.10 B1813,2013-01-25 11:50:00,
2013-01-25 06:55:00,17.4,0.2,-100.00,NE,49,6.3,6.3,46,-99.99,,,0.00,LWC V2.10 B1813,2013-01-25 11:55:00,
2013-01-25 07:00:00,17.4,0.2,-100.00,NE,48,2.7,4.0,46,-99.99,,,0.00,LWC V2.10 B1813,2013-01-25 12:00:00,
2013-01-25 07:05:00,17.4,0.2,-100.00,NNE,28,4.9,5.8,46,-99.99,,,0.00,LWC V2.10 B1813,2013-01-25 12:05:00,
2013-01-25 07:10:00,17.4,0.2,-100.00,NNE,16,5.4,6.3,46,-99.99,,,0.00,LWC V2.10 B1813,2013-01-25 12:10:00,
2013-01-25 07:15:00,17.2,1.0,-100.00,NNE,20,5.4,6.3,48,-99.99,,,0.00,LWC V2.10 B1813,2013-01-25 12:15:00,
2013-01-25 07:20:00,16.9,1.9,-100.00,NE,34,6.3,8.3,51,-99.99,,,0.00,LWC V2.10 B1813,2013-01-25 12:20:00,
2013-01-25 07:25:00,16.9,2.7,-100.00,NE,48,5.4,8.3,53,-99.99,,,0.00,LWC V2.10 B1813,2013-01-25 12:25:00,
2013-01-25 07:30:00,16.7,2.6,-100.00,ENE,65,5.8,6.3,53,-99.99,,,0.00,LWC V2.10 B1813,2013-01-25 12:30:00,
2013-01-25 07:35:00,16.7,2.2,-100.00,NNE,33,4.0,6.7,52,-99.99,,,0.00,LWC V2.10 B1813,2013-01-25 12:35:00,
2013-01-25 07:40:00,16.9,2.7,-100.00,NE,51,7.2,7.2,53,-99.99,,,0.00,LWC V2.10 B1813,2013-01-25 12:40:00,
2013-01-25 07:45:00,16.9,2.3,-100.00,NE,35,6.3,6.3,52,-99.99,,,0.00,LWC V2.10 B1813,2013-01-25 12:45:00,
2013-01-25 07:50:00,16.9,2.3,-100.00,NE,48,4.0,4.9,52,-99.99,,,0.00,LWC V2.10 B1813,2013-01-25 12:50:00,
2013-01-25 07:55:00,17.1,2.5,-100.00,NNE,24,7.2,7.6,52,-99.99,,,0.00,LWC V2.10 B1813,2013-01-25 12:55:00,
2013-01-25 08:00:00,17.1,2.1,-100.00,NNE,15,5.8,7.6,51,-99.99,,,0.00,LWC V2.10 B1813,2013-01-25 13:00:00,
2013-01-25 08:05:00,17.1,1.7,-100.00,North,10,7.6,8.7,50,-99.99,,,0.00,LWC V2.10 B1813,2013-01-25 13:05:00,
2013-01-25 08:10:00,17.1,1.7,-100.00,NNE,23,8.3,8.3,50,-99.99,,,0.00,LWC V2.10 B1813,2013-01-25 13:10:00,
2013-01-25 08:15:00,17.2,1.4,-100.00,North,7,8.1,8.7,49,-99.99,,,0.00,LWC V2.10 B1813,2013-01-25 13:15:00,
2013-01-25 08:20:00,17.4,1.6,-100.00,NE,45,4.0,5.4,49,-99.99,,,0.00,LWC V2.10 B1813,2013-01-25 13:20:00,
2013-01-25 08:26:00,17.2,1.4,-100.00,NE,36,5.4,5.4,49,-99.99,,,0.00,LWC V2.10 B1813,2013-01-25 13:26:00,
2013-01-25 08:31:00,17.1,2.1,-100.00,NE,42,5.8,5.8,51,-99.99,,,0.00,LWC V2.10 B1813,2013-01-25 13:31:00,
2013-01-25 08:36:00,16.9,3.1,-100.00,NE,37,3.6,8.3,54,-99.99,,,0.00,LWC V2.10 B1813,2013-01-25 13:36:00,
2013-01-25 08:41:00,16.5,4.0,-100.00,NE,45,4.0,5.8,57,-99.99,,,0.00,LWC V2.10 B1813,2013-01-25 13:41:00,
2013-01-25 08:46:00,16.0,5.3,-100.00,ENE,73,6.3,6.3,62,-99.99,,,0.00,LWC V2.10 B1813,2013-01-25 13:46:00,
2013-01-25 08:51:00,15.8,6.5,-100.00,NNE,27,4.0,5.8,66,-99.99,,,0.00,LWC V2.10 B1813,2013-01-25 13:51:00,
2013-01-25 08:56:00,15.6,7.6,-100.00,ENE,67,3.6,5.8,70,-99.99,,,0.00,LWC V2.10 B1813,2013-01-25 13:56:00,
2013-01-25 09:01:00,15.4,8.1,-100.00,ENE,71,5.4,6.3,72,-99.99,,,0.00,LWC V2.10 B1813,2013-01-25 14:01:00,
2013-01-25 09:06:00,15.4,8.7,-100.00,North,357,5.4,5.8,74,-99.99,,,0.00,LWC V2.10 B1813,2013-01-25 14:06:00,
2013-01-25 09:11:00,15.3,8.8,-100.00,NE,40,4.5,8.1,75,-99.99,,,0.00,LWC V2.10 B1813,2013-01-25 14:11:00,
2013-01-25 09:16:00,15.4,9.3,-100.00,NNE,26,6.3,6.3,76,-99.99,,,0.00,LWC V2.10 B1813,2013-01-25 14:16:00,
2013-01-25 09:21:00,15.4,9.3,-100.00,NE,36,5.8,6.3,76,-99.99,,,0.00,LWC V2.10 B1813,2013-01-25 14:21:00,
2013-01-25 09:26:00,15.6,9.7,-100.00,NNE,27,5.8,5.8,77,-99.99,,,0.00,LWC V2.10 B1813,2013-01-25 14:26:00,
2013-01-25 09:31:00,15.4,9.5,-100.00,NNE,28,4.9,6.3,77,-99.99,,,0.00,LWC V2.10 B1813,2013-01-25 14:31:00,
2013-01-25 09:36:00,15.6,9.7,-100.00,North,3,5.8,6.3,77,-99.99,,,0.00,LWC V2.10 B1813,2013-01-25 14:36:00,
2013-01-25 09:41:00,15.8,10.2,-100.00,NNE,18,5.4,5.8,78,-99.99,,,0.00,LWC V2.10 B1813,2013-01-25 14:41:00,
2013-01-25 09:46:00,15.8,10.2,-100.00,NE,37,5.4,6.3,78,-99.99,,,0.00,LWC V2.10 B1813,2013-01-25 14:46:00,
2013-01-25 09:51:00,15.8,9.9,-100.00,ENE,63,5.4,5.4,77,-99.99,,,0.00,LWC V2.10 B1813,2013-01-25 14:51:00,
2013-01-25 09:56:00,16.0,10.1,-100.00,NE,44,5.4,5.4,77,-99.99,,,0.00,LWC V2.10 B1813,2013-01-25 14:56:00,
2013-01-25 10:01:00,16.0,10.1,-100.00,NE,50,4.0,6.3,77,-99.99,,,0.00,LWC V2.10 B1813,2013-01-25 15:01:00,
2013-01-25 10:06:00,16.0,10.1,-100.00,NNE,31,4.0,7.6,77,-99.99,,,0.00,LWC V2.10 B1813,2013-01-25 15:06:00,
2013-01-25 10:11:00,16.0,9.8,-100.00,NE,39,3.1,5.8,76,-99.99,,,0.00,LWC V2.10 B1813,2013-01-25 15:11:00,
2013-01-25 10:16:00,16.3,10.1,-100.00,NNE,17,4.0,5.4,76,-99.99,,,0.00,LWC V2.10 B1813,2013-01-25 15:16:00,
2013-01-25 10:21:00,16.7,10.8,-100.00,NNE,32,5.4,5.4,77,-99.99,,,0.00,LWC V2.10 B1813,2013-01-25 15:21:00,
2013-01-25 10:26:00,16.7,10.2,-100.00,NE,36,4.0,6.3,75,-99.99,,,0.00,LWC V2.10 B1813,2013-01-25 15:26:00,
2013-01-25 10:31:00,16.7,10.2,-100.00,NNE,21,6.3,7.6,75,-99.99,,,0.00,LWC V2.10 B1813,2013-01-25 15:31:00,
2013-01-25 10:36:00,16.5,9.7,-100.00,NE,51,5.8,6.3,74,-99.99,,,0.00,LWC V2.10 B1813,2013-01-25 15:36:00,
2013-01-25 10:41:00,17.2,10.7,-100.00,NNE,30,4.0,5.4,75,-99.99,,,0.00,LWC V2.10 B1813,2013-01-25 15:41:00,
2013-01-25 10:46:00,17.2,10.1,-100.00,ENE,68,3.6,7.6,73,-99.99,,,0.00,LWC V2.10 B1813,2013-01-25 15:46:00,
2013-01-25 10:51:00,17.4,10.3,-100.00,ENE,61,2.2,7.6,73,-99.99,,,0.00,LWC V2.10 B1813,2013-01-25 15:51:00,
2013-01-25 10:56:00,17.6,10.4,-100.00,ENE,61,4.0,5.4,73,-99.99,,,0.00,LWC V2.10 B1813,2013-01-25 15:56:00,
2013-01-25 11:01:00,17.2,10.1,-100.00,NE,39,3.6,7.6,73,-99.99,,,0.00,LWC V2.10 B1813,2013-01-25 16:01:00,
2013-01-25 11:06:00,17.4,10.0,-100.00,NE,45,2.7,4.5,72,-99.99,,,0.00,LWC V2.10 B1813,2013-01-25 16:06:00,
2013-01-25 11:11:00,17.6,10.1,-100.00,NNE,33,3.6,3.6,72,-99.99,,,0.00,LWC V2.10 B1813,2013-01-25 16:11:00,
2013-01-25 11:16:00,17.6,9.8,-100.00,NE,45,4.9,4.9,71,-99.99,,,0.00,LWC V2.10 B1813,2013-01-25 16:16:00,
2013-01-25 11:21:00,18.0,10.2,-100.00,NE,36,4.0,6.3,71,-99.99,,,0.00,LWC V2.10 B1813,2013-01-25 16:21:00,
2013-01-25 11:26:00,18.3,10.2,-100.00,NE,49,6.3,6.3,70,-99.99,,,0.00,LWC V2.10 B1813,2013-01-25 16:26:00,
2013-01-25 11:31:00,18.7,9.9,-100.00,ENE,63,4.9,6.7,68,-99.99,,,0.00,LWC V2.10 B1813,2013-01-25 16:31:00,
2013-01-25 11:36:00,18.5,9.4,-100.00,ENE,73,3.1,5.4,67,-99.99,,,0.00,LWC V2.10 B1813,2013-01-25 16:36:00,
2013-01-25 11:41:00,19.2,10.1,-100.00,NE,53,3.6,4.0,67,-99.99,,,0.00,LWC V2.10 B1813,2013-01-25 16:41:00,
2013-01-25 11:46:00,18.7,8.9,-100.00,NNE,17,4.0,6.3,65,-99.99,,,0.00,LWC V2.10 B1813,2013-01-25 16:46:00,
2013-01-25 11:51:00,19.2,9.8,-100.00,NE,34,3.6,4.5,66,-99.99,,,0.00,LWC V2.10 B1813,2013-01-25 16:51:00,
2013-01-25 11:56:00,19.0,9.2,-100.00,ENE,72,2.2,5.4,65,-99.99,,,0.00,LWC V2.10 B1813,2013-01-25 16:56:00,
2013-01-25 12:01:00,19.0,9.2,-100.00,ENE,65,5.4,5.4,65,-99.99,,,0.00,LWC V2.10 B1813,2013-01-25 17:01:00,
2013-01-25 12:06:00,19.8,9.9,-100.00,ESE,103,3.6,4.0,65,-99.99,,,0.00,LWC V2.10 B1813,2013-01-25 17:06:00,
2013-01-25 12:11:00,19.9,10.1,-100.00,ESE,112,3.6,3.6,65,-99.99,,,0.00,LWC V2.10 B1813,2013-01-25 17:11:00,
2013-01-25 12:16:00,21.0,10.8,-100.00,ESE,104,2.2,3.1,64,-99.99,,,0.00,LWC V2.10 B1813,2013-01-25 17:16:00,
2013-01-25 12:21:00,21.7,10.4,-100.00,ESE,103,2.7,4.0,61,-99.99,,,0.00,LWC V2.10 B1813,2013-01-25 17:21:00,
2013-01-25 12:26:00,21.6,9.5,-100.00,East,79,3.6,5.4,59,-99.99,,,0.00,LWC V2.10 B1813,2013-01-25 17:26:00,
2013-01-25 12:31:00,21.6,9.9,-100.00,SE,133,2.2,3.1,60,-99.99,,,0.00,LWC V2.10 B1813,2013-01-25 17:31:00,
2013-01-25 12:36:00,22.6,10.9,-100.00,SE,143,0.0,0.0,60,-99.99,,,0.00,LWC V2.10 B1813,2013-01-25 17:36:00,
2013-01-25 12:41:00,22.8,10.3,-100.00,SE,130,3.6,5.4,58,-99.99,,,0.00,LWC V2.10 B1813,2013-01-25 17:41:00,
2013-01-25 12:46:00,22.1,8.0,-100.00,NE,50,4.0,5.4,54,-99.99,,,0.00,LWC V2.10 B1813,2013-01-25 17:46:00,
2013-01-25 12:51:00,22.3,8.6,-100.00,SE,131,2.7,4.0,55,-99.99,,,0.00,LWC V2.10 B1813,2013-01-25 17:51:00,
2013-01-25 12:56:00,21.9,7.9,-100.00,SE,125,4.0,4.9,54,-99.99,,,0.00,LWC V2.10 B1813,2013-01-25 17:56:00,
2013-01-25 13:01:00,21.9,8.3,-100.00,SE,136,0.0,2.2,55,-99.99,,,0.00,LWC V2.10 B1813,2013-01-25 18:01:00,
2013-01-25 13:06:00,21.9,8.3,-100.00,ESE,123,3.6,3.6,55,-99.99,,,0.00,LWC V2.10 B1813,2013-01-25 18:06:00,
2013-01-25 13:11:00,21.9,8.3,-100.00,SE,143,2.2,4.0,55,-99.99,,,0.00,LWC V2.10 B1813,2013-01-25 18:11:00,
2013-01-25 13:16:00,22.1,8.4,-100.00,SE,135,3.6,5.4,55,-99.99,,,0.00,LWC V2.10 B1813,2013-01-25 18:16:00,
2013-01-25 13:21:00,22.3,8.6,-100.00,SSE,154,4.9,4.9,55,-99.99,,,0.00,LWC V2.10 B1813,2013-01-25 18:21:00,
2013-01-25 13:26:00,22.8,9.1,-100.00,SE,145,3.1,4.9,55,-99.99,,,0.00,LWC V2.10 B1813,2013-01-25 18:26:00,
2013-01-25 13:31:00,23.2,9.0,-100.00,SSE,162,3.6,3.6,54,-99.99,,,0.00,LWC V2.10 B1813,2013-01-25 18:31:00,
2013-01-25 13:36:00,23.2,8.6,-100.00,SE,126,4.9,4.9,53,-99.99,,,0.00,LWC V2.10 B1813,2013-01-25 18:36:00,
2013-01-25 13:41:00,22.8,8.3,-100.00,SE,139,2.7,5.4,53,-99.99,,,0.00,LWC V2.10 B1813,2013-01-25 18:41:00,
2013-01-25 13:46:00,22.6,8.5,-100.00,SSE,158,3.6,4.9,54,-99.99,,,0.00,LWC V2.10 B1813,2013-01-25 18:46:00,
2013-01-25 13:51:00,22.8,8.7,-100.00,SSE,150,3.6,3.6,54,-99.99,,,0.00,LWC V2.10 B1813,2013-01-25 18:51:00,
2013-01-25 13:56:00,23.4,9.2,-100.00,SSE,156,4.0,4.9,54,-99.99,,,0.00,LWC V2.10 B1813,2013-01-25 18:56:00,
2013-01-25 14:01:00,24.1,9.5,-100.00,SSE,158,3.1,4.9,53,-99.99,,,0.00,LWC V2.10 B1813,2013-01-25 19:01:00,
2013-01-25 14:06:00,25.0,9.9,-100.00,SE,140,2.2,3.6,52,-99.99,,,0.00,LWC V2.10 B1813,2013-01-25 19:06:00,
2013-01-25 14:11:00,25.2,9.2,-100.00,SSE,149,0.0,0.0,50,-99.99,,,0.00,LWC V2.10 B1813,2013-01-25 19:11:00,
2013-01-25 14:16:00,25.0,8.1,-100.00,SE,129,0.0,0.0,48,-99.99,,,0.00,LWC V2.10 B1813,2013-01-25 19:16:00,
2013-01-25 14:21:00,25.2,8.3,-100.00,SE,145,3.6,4.0,48,-99.99,,,0.00,LWC V2.10 B1813,2013-01-25 19:21:00,
2013-01-25 14:26:00,25.3,8.0,-100.00,South,178,3.1,5.4,47,-99.99,,,0.00,LWC V2.10 B1813,2013-01-25 19:26:00,
2013-01-25 14:31:00,25.9,8.5,-100.00,SE,139,0.0,3.6,47,-99.99,,,0.00,LWC V2.10 B1813,2013-01-25 19:31:00,
2013-01-25 14:36:00,25.5,7.7,-100.00,SSW,195,0.0,0.0,46,-99.99,,,0.00,LWC V2.10 B1813,2013-01-25 19:36:00,
2013-01-25 14:41:00,23.9,7.1,-100.00,West,271,0.0,0.0,48,-99.99,,,0.00,LWC V2.10 B1813,2013-01-25 19:41:00,
2013-01-25 14:46:00,25.3,8.9,-100.00,SSE,153,0.0,0.0,49,-99.99,,,0.00,LWC V2.10 B1813,2013-01-25 19:46:00,
2013-01-25 14:51:00,25.5,8.6,-100.00,SSW,198,0.0,0.0,48,-99.99,,,0.00,LWC V2.10 B1813,2013-01-25 19:51:00,
2013-01-25 14:56:00,25.5,8.1,-100.00,SSW,192,2.7,2.7,47,-99.99,,,0.00,LWC V2.10 B1813,2013-01-25 19:56:00,
2013-01-25 15:01:00,25.3,8.0,-100.00,SSW,193,0.0,3.1,47,-99.99,,,0.00,LWC V2.10 B1813,2013-01-25 20:01:00,
2013-01-25 15:06:00,24.4,8.1,-100.00,West,276,0.0,0.0,49,-99.99,,,0.00,LWC V2.10 B1813,2013-01-25 20:06:00,
2013-01-25 15:11:00,24.4,8.5,-100.00,West,277,0.0,0.0,50,-99.99,,,0.00,LWC V2.10 B1813,2013-01-25 20:11:00,
2013-01-25 15:16:00,24.4,8.5,-100.00,West,276,0.0,0.0,50,-99.99,,,0.00,LWC V2.10 B1813,2013-01-25 20:16:00,
2013-01-25 15:21:00,22.8,7.9,-100.00,WSW,257,0.0,0.0,52,-99.99,,,0.00,LWC V2.10 B1813,2013-01-25 20:21:00,
2013-01-25 15:26:00,23.7,8.7,-100.00,WSW,257,0.0,0.0,52,-99.99,,,0.00,LWC V2.10 B1813,2013-01-25 20:26:00,
2013-01-25 15:31:00,23.7,8.7,-100.00,West,272,3.1,3.1,52,-99.99,,,0.00,LWC V2.10 B1813,2013-01-25 20:31:00,
2013-01-25 15:37:00,22.8,8.3,-100.00,West,265,0.0,0.0,53,-99.99,,,0.00,LWC V2.10 B1813,2013-01-25 20:37:00,
2013-01-25 15:42:00,23.5,9.0,-100.00,West,270,0.0,0.0,53,-99.99,,,0.00,LWC V2.10 B1813,2013-01-25 20:42:00,
2013-01-25 15:47:00,22.6,8.1,-100.00,WSW,245,2.7,3.6,53,-99.99,,,0.00,LWC V2.10 B1813,2013-01-25 20:47:00,
2013-01-25 15:52:00,22.3,8.6,-100.00,West,265,0.0,2.7,55,-99.99,,,0.00,LWC V2.10 B1813,2013-01-25 20:52:00,
2013-01-25 15:57:00,22.6,9.3,-100.00,South,177,2.7,4.0,56,-99.99,,,0.00,LWC V2.10 B1813,2013-01-25 20:57:00,
2013-01-25 16:02:00,22.8,9.1,-100.00,SSW,202,0.0,0.0,55,-99.99,,,0.00,LWC V2.10 B1813,2013-01-25 21:02:00,
2013-01-25 16:07:00,22.8,9.1,-100.00,SW,230,2.2,2.7,55,-99.99,,,0.00,LWC V2.10 B1813,2013-01-25 21:07:00,
2013-01-25 16:12:00,22.8,9.1,-100.00,WSW,239,0.0,0.0,55,-99.99,,,0.00,LWC V2.10 B1813,2013-01-25 21:12:00,
2013-01-25 16:17:00,23.2,9.4,-100.00,WSW,239,0.0,0.0,55,-99.99,,,0.00,LWC V2.10 B1813,2013-01-25 21:17:00,
2013-01-25 16:22:00,23.0,9.3,-100.00,South,176,3.1,5.4,55,-99.99,,,0.00,LWC V2.10 B1813,2013-01-25 21:22:00,
2013-01-25 16:27:00,22.5,9.2,-100.00,South,184,3.6,3.6,56,-99.99,,,0.00,LWC V2.10 B1813,2013-01-25 21:27:00,
2013-01-25 16:32:00,22.3,9.4,-100.00,SSW,207,4.0,4.0,57,-99.99,,,0.00,LWC V2.10 B1813,2013-01-25 21:32:00,
2013-01-25 16:37:00,21.7,9.3,-100.00,SSW,204,3.6,5.8,58,-99.99,,,0.00,LWC V2.10 B1813,2013-01-25 21:37:00,
2013-01-25 16:42:00,21.6,9.1,-100.00,SSW,213,5.4,5.8,58,-99.99,,,0.00,LWC V2.10 B1813,2013-01-25 21:42:00,
2013-01-25 16:47:00,21.6,9.1,-100.00,SSW,197,2.7,5.4,58,-99.99,,,0.00,LWC V2.10 B1813,2013-01-25 21:47:00,
2013-01-25 16:52:00,21.6,9.5,-100.00,SW,235,6.3,6.3,59,-99.99,,,0.00,LWC V2.10 B1813,2013-01-25 21:52:00,
2013-01-25 16:57:00,21.4,9.3,-100.00,SSW,199,3.6,3.6,59,-99.99,,,0.00,LWC V2.10 B1813,2013-01-25 21:57:00,
2013-01-25 17:02:00,21.4,9.3,-100.00,SW,229,4.9,4.9,59,-99.99,,,0.00,LWC V2.10 B1813,2013-01-25 22:02:00,
2013-01-25 17:07:00,21.0,9.3,-100.00,WSW,254,4.0,5.8,60,-99.99,,,0.00,LWC V2.10 B1813,2013-01-25 22:07:00,
2013-01-25 17:12:00,20.8,9.5,-100.00,SSW,203,5.8,5.8,61,-99.99,,,0.00,LWC V2.10 B1813,2013-01-25 22:12:00,
2013-01-25 17:17:00,20.7,9.7,-100.00,South,170,3.6,4.9,62,-99.99,,,0.00,LWC V2.10 B1813,2013-01-25 22:17:00,
2013-01-25 17:22:00,20.7,10.1,-100.00,SSW,207,4.5,5.4,63,-99.99,,,0.00,LWC V2.10 B1813,2013-01-25 22:22:00,
2013-01-25 17:27:00,20.5,9.9,-100.00,SSW,206,4.9,6.3,63,-99.99,,,0.00,LWC V2.10 B1813,2013-01-25 22:27:00,
2013-01-25 17:32:00,20.5,10.3,-100.00,SW,226,6.3,6.3,64,-99.99,,,0.00,LWC V2.10 B1813,2013-01-25 22:32:00,
2013-01-25 17:37:00,20.5,10.3,-100.00,SSW,212,2.2,3.6,64,-99.99,,,0.00,LWC V2.10 B1813,2013-01-25 22:37:00,
2013-01-25 17:42:00,20.5,10.3,-100.00,SSW,193,3.6,4.0,64,-99.99,,,0.00,LWC V2.10 B1813,2013-01-25 22:42:00,
2013-01-25 17:47:00,20.3,10.4,-100.00,SSW,193,3.6,4.0,65,-99.99,,,0.00,LWC V2.10 B1813,2013-01-25 22:47:00,
2013-01-25 17:52:00,20.3,10.4,-100.00,SSW,200,3.6,4.5,65,-99.99,,,0.00,LWC V2.10 B1813,2013-01-25 22:52:00,
2013-01-25 17:57:00,20.3,10.4,-100.00,SSW,202,4.0,6.3,65,-99.99,,,0.00,LWC V2.10 B1813,2013-01-25 22:57:00,
2013-01-25 18:02:00,20.3,10.8,-100.00,SSW,200,5.4,6.3,66,-99.99,,,0.00,LWC V2.10 B1813,2013-01-25 23:02:00,
2013-01-25 18:07:00,20.1,10.6,-100.00,SW,224,3.6,6.7,66,-99.99,,,0.00,LWC V2.10 B1813,2013-01-25 23:07:00,
2013-01-25 18:12:00,20.1,10.9,-100.00,SSW,207,4.0,5.4,67,-99.99,,,0.00,LWC V2.10 B1813,2013-01-25 23:12:00,
2013-01-25 18:17:00,20.1,10.9,-100.00,South,187,4.0,6.3,67,-99.99,,,0.00,LWC V2.10 B1813,2013-01-25 23:17:00,
2013-01-25 18:22:00,20.1,11.3,-100.00,South,189,3.6,6.3,68,-99.99,,,0.00,LWC V2.10 B1813,2013-01-25 23:22:00,
2013-01-25 18:27:00,20.1,11.3,-100.00,SSW,198,4.0,8.1,68,-99.99,,,0.00,LWC V2.10 B1813,2013-01-25 23:27:00,
2013-01-25 18:32:00,20.1,11.3,-100.00,South,190,6.3,6.3,68,-99.99,,,0.00,LWC V2.10 B1813,2013-01-25 23:32:00,
2013-01-25 18:37:00,20.1,11.3,-100.00,SSW,200,4.0,6.3,68,-99.99,,,0.00,LWC V2.10 B1813,2013-01-25 23:37:00,
2013-01-25 18:42:00,20.1,11.6,-100.00,SSW,200,6.3,6.3,69,-99.99,,,0.00,LWC V2.10 B1813,2013-01-25 23:42:00,
2013-01-25 18:47:00,20.1,11.6,-100.00,SW,219,3.6,4.0,69,-99.99,,,0.00,LWC V2.10 B1813,2013-01-25 23:47:00,
2013-01-25 18:52:00,20.1,11.6,-100.00,SSW,209,3.1,4.0,69,-99.99,,,0.00,LWC V2.10 B1813,2013-01-25 23:52:00,
2013-01-25 18:57:00,20.1,11.6,-100.00,SSW,198,4.9,5.4,69,-99.99,,,0.00,LWC V2.10 B1813,2013-01-25 23:57:00,
2013-01-25 19:02:00,20.1,11.6,-100.00,SW,216,4.0,6.3,69,-99.99,,,0.00,LWC V2.10 B1813,2013-01-26 00:02:00,
2013-01-25 19:07:00,20.1,11.6,-100.00,SSW,204,4.0,5.8,69,-99.99,,,0.00,LWC V2.10 B1813,2013-01-26 00:07:00,
2013-01-25 19:12:00,20.1,11.9,-100.00,SSW,207,2.7,3.6,70,-99.99,,,0.00,LWC V2.10 B1813,2013-01-26 00:12:00,
2013-01-25 19:17:00,20.1,11.9,-100.00,SSW,198,5.8,5.8,70,-99.99,,,0.00,LWC V2.10 B1813,2013-01-26 00:17:00,
2013-01-25 19:22:00,20.1,11.9,-100.00,SSW,202,4.0,6.3,70,-99.99,,,0.00,LWC V2.10 B1813,2013-01-26 00:22:00,
2013-01-25 19:27:00,20.1,11.9,-100.00,SSW,195,3.1,5.4,70,-99.99,,,0.00,LWC V2.10 B1813,2013-01-26 00:27:00,
2013-01-25 19:32:00,20.1,11.9,-100.00,SSW,211,4.0,5.8,70,-99.99,,,0.00,LWC V2.10 B1813,2013-01-26 00:32:00,
2013-01-25 19:37:00,20.1,11.9,-100.00,SSW,213,8.1,8.1,70,-99.99,,,0.00,LWC V2.10 B1813,2013-01-26 00:37:00,
2013-01-25 19:42:00,20.1,11.9,-100.00,South,175,5.4,5.4,70,-99.99,,,0.00,LWC V2.10 B1813,2013-01-26 00:42:00,
2013-01-25 19:47:00,20.1,11.9,-100.00,SSW,212,4.0,4.0,70,-99.99,,,0.00,LWC V2.10 B1813,2013-01-26 00:47:00,
2013-01-25 19:52:00,20.1,12.3,-100.00,SSW,194,0.0,3.1,71,-99.99,,,0.00,LWC V2.10 B1813,2013-01-26 00:52:00,
2013-01-25 19:57:00,20.3,12.4,-100.00,South,179,3.1,3.1,71,-99.99,,,0.00,LWC V2.10 B1813,2013-01-26 00:57:00,
2013-01-25 20:02:00,20.3,12.4,-100.00,SSE,167,5.8,5.8,71,-99.99,,,0.00,LWC V2.10 B1813,2013-01-26 01:02:00,
2013-01-25 20:07:00,20.3,12.4,-100.00,SSW,201,4.0,5.4,71,-99.99,,,0.00,LWC V2.10 B1813,2013-01-26 01:07:00,
2013-01-25 20:12:00,20.3,12.4,-100.00,SSW,197,4.0,4.9,71,-99.99,,,0.00,LWC V2.10 B1813,2013-01-26 01:12:00,
2013-01-25 20:17:00,20.3,12.4,-100.00,SSW,197,3.6,4.9,71,-99.99,,,0.00,LWC V2.10 B1813,2013-01-26 01:17:00,
2013-01-25 20:22:00,20.3,12.4,-100.00,South,187,3.6,4.9,71,-99.99,,,0.00,LWC V2.10 B1813,2013-01-26 01:22:00,
2013-01-25 20:27:00,20.5,12.6,-100.00,SSW,198,4.0,4.0,71,-99.99,,,0.00,LWC V2.10 B1813,2013-01-26 01:27:00,
2013-01-25 20:32:00,20.5,12.9,-100.00,South,182,4.9,7.2,72,-99.99,,,0.00,LWC V2.10 B1813,2013-01-26 01:32:00,
2013-01-25 20:37:00,20.5,12.9,-100.00,South,179,5.4,5.4,72,-99.99,,,0.00,LWC V2.10 B1813,2013-01-26 01:37:00,
2013-01-25 20:42:00,20.7,13.1,-100.00,SSW,202,4.9,4.9,72,-99.99,,,0.00,LWC V2.10 B1813,2013-01-26 01:42:00,
2013-01-25 20:47:00,20.7,13.1,-100.00,SSW,192,3.6,4.0,72,-99.99,,,0.00,LWC V2.10 B1813,2013-01-26 01:47:00,
2013-01-25 20:52:00,20.7,13.1,-100.00,SSW,192,4.0,5.4,72,-99.99,,,0.00,LWC V2.10 B1813,2013-01-26 01:52:00,
2013-01-25 20:57:00,20.7,13.1,-100.00,South,183,3.6,4.9,72,-99.99,,,0.00,LWC V2.10 B1813,2013-01-26 01:57:00,
2013-01-25 21:02:00,20.8,13.3,-100.00,South,181,4.0,4.0,72,-99.99,,,0.00,LWC V2.10 B1813,2013-01-26 02:02:00,
2013-01-25 21:07:00,20.8,13.3,-100.00,South,177,4.0,5.4,72,-99.99,,,0.00,LWC V2.10 B1813,2013-01-26 02:07:00,
2013-01-25 21:12:00,20.8,13.3,-100.00,South,169,5.8,6.3,72,-99.99,,,0.00,LWC V2.10 B1813,2013-01-26 02:12:00,
2013-01-25 21:17:00,21.0,13.7,-100.00,SSE,167,6.3,7.6,73,-99.99,,,0.00,LWC V2.10 B1813,2013-01-26 02:17:00,
2013-01-25 21:22:00,21.2,13.9,-100.00,SSW,201,5.8,6.3,73,-99.99,,,0.00,LWC V2.10 B1813,2013-01-26 02:22:00,
2013-01-25 21:27:00,21.2,13.9,-100.00,SSW,193,5.4,5.4,73,-99.99,,,0.00,LWC V2.10 B1813,2013-01-26 02:27:00,
2013-01-25 21:32:00,21.6,14.0,-100.00,SW,229,5.4,7.2,72,-99.99,,,0.00,LWC V2.10 B1813,2013-01-26 02:32:00,
2013-01-25 21:38:00,21.6,14.0,-100.00,South,181,4.9,5.4,72,-99.99,,,0.00,LWC V2.10 B1813,2013-01-26 02:38:00,
2013-01-25 21:43:00,21.6,14.0,-100.00,SSW,200,8.7,9.6,72,-99.99,,,0.00,LWC V2.10 B1813,2013-01-26 02:43:00,
2013-01-25 21:48:00,21.6,14.3,-100.00,SSW,202,5.8,5.8,73,-99.99,,,0.00,LWC V2.10 B1813,2013-01-26 02:48:00,
2013-01-25 21:53:00,21.6,14.3,-100.00,SW,220,5.4,5.4,73,-99.99,,,0.00,LWC V2.10 B1813,2013-01-26 02:53:00,
2013-01-25 21:58:00,21.6,14.3,-100.00,SSW,210,7.6,8.1,73,-99.99,,,0.00,LWC V2.10 B1813,2013-01-26 02:58:00,
2013-01-25 22:03:00,21.6,14.3,-100.00,SSW,192,6.3,6.3,73,-99.99,,,0.00,LWC V2.10 B1813,2013-01-26 03:03:00,
2013-01-25 22:08:00,21.6,14.6,-100.00,SSW,203,6.3,6.3,74,-99.99,,,0.00,LWC V2.10 B1813,2013-01-26 03:08:00,
2013-01-25 22:13:00,21.6,14.6,-100.00,SW,219,4.9,5.8,74,-99.99,,,0.00,LWC V2.10 B1813,2013-01-26 03:13:00,
2013-01-25 22:18:00,21.7,15.1,-100.00,South,187,5.4,5.8,75,-99.99,,,0.00,LWC V2.10 B1813,2013-01-26 03:18:00,
2013-01-25 22:23:00,21.7,15.1,-100.00,SSW,194,5.4,5.4,75,-99.99,,,0.00,LWC V2.10 B1813,2013-01-26 03:23:00,
2013-01-25 22:28:00,21.7,15.4,-100.00,SW,235,5.8,5.8,76,-99.99,,,0.00,LWC V2.10 B1813,2013-01-26 03:28:00,
2013-01-25 22:33:00,21.7,15.7,-100.00,SSW,195,5.4,6.7,77,-99.99,,,0.00,LWC V2.10 B1813,2013-01-26 03:33:00,
2013-01-25 22:38:00,21.9,15.8,-100.00,South,186,3.6,8.3,77,-99.99,,,0.00,LWC V2.10 B1813,2013-01-26 03:38:00,
2013-01-25 22:43:00,21.9,16.1,-100.00,SSW,198,5.8,6.3,78,-99.99,,,0.00,LWC V2.10 B1813,2013-01-26 03:43:00,
2013-01-25 22:48:00,21.9,16.4,-100.00,SSW,195,4.0,8.1,79,-99.99,,,0.00,LWC V2.10 B1813,2013-01-26 03:48:00,
2013-01-25 22:53:00,21.9,16.7,-100.00,SSW,203,5.4,5.4,80,-99.99,,,0.00,LWC V2.10 B1813,2013-01-26 03:53:00,
2013-01-25 22:58:00,22.1,17.2,-100.00,South,191,3.1,5.4,81,-99.99,,,0.00,LWC V2.10 B1813,2013-01-26 03:58:00,
2013-01-25 23:03:00,22.1,17.7,-100.00,SSW,200,5.4,5.8,83,-99.99,,,0.00,LWC V2.10 B1813,2013-01-26 04:03:00,
2013-01-25 23:08:00,22.1,18.0,-100.00,SW,220,4.9,6.3,84,-99.99,,,0.00,LWC V2.10 B1813,2013-01-26 04:08:00,
2013-01-25 23:13:00,22.3,18.5,-100.00,SSW,197,6.3,8.7,85,-99.99,,,0.00,LWC V2.10 B1813,2013-01-26 04:13:00,
2013-01-25 23:18:00,22.3,18.7,-100.00,South,177,5.8,6.3,86,-99.99,,,0.00,LWC V2.10 B1813,2013-01-26 04:18:00,
2013-01-25 23:23:00,22.5,18.9,-100.00,SSW,204,6.3,8.7,86,-99.99,,,0.00,LWC V2.10 B1813,2013-01-26 04:23:00,
2013-01-25 23:28:00,22.5,18.9,-100.00,SSE,166,5.4,8.1,86,-99.99,,,0.00,LWC V2.10 B1813,2013-01-26 04:28:00,
2013-01-25 23:33:00,22.6,19.1,-100.00,SSE,168,2.7,4.9,86,-99.99,,,0.00,LWC V2.10 B1813,2013-01-26 04:33:00,
2013-01-25 23:38:00,22.6,18.8,-100.00,South,175,5.4,6.7,85,-99.99,,,0.00,LWC V2.10 B1813,2013-01-26 04:38:00,
2013-01-25 23:43:00,22.6,18.8,-100.00,SSW,205,5.8,6.3,85,-99.99,,,0.00,LWC V2.10 B1813,2013-01-26 04:43:00,
2013-01-25 23:48:00,22.8,19.0,-100.00,South,175,5.8,8.7,85,-99.99,,,0.00,LWC V2.10 B1813,2013-01-26 04:48:00,
2013-01-25 23:53:00,22.8,19.0,-100.00,SSW,196,4.9,8.3,85,-99.99,,,0.00,LWC V2.10 B1813,2013-01-26 04:53:00,
2013-01-25 23:58:00,22.8,18.7,-100.00,South,185,6.3,6.3,84,-99.99,,,0.00,LWC V2.10 B1813,2013-01-26 04:58:00,